M I D A S
Marine Information and Data Acquisition System
Tripno 485 of the Zeeleeuw from 2003-05-06 06:51:58 to 2003-05-06 12:18:34
Back to CruiseResearch ActivitiesStationsMapUnderway DataData graphs

EquipmentUnitsComments
TimeDGPSUTC
LatitudeDGPSDM.mWGS84
LongitudeDGPSDM.mWGS84
SpeedMeteo Stationm/sRelative wind speed
DirectionMeteo StationdegRelative wind direction
TemperatureMeteo Stationdeg CelciusAir temperature
PressureMeteo StationPaAtmospheric pressure
HumidityMeteo Station%Relative humidity
Missing or incorrect values are displayed as -999
Metereological data collected by the RV Zeeleeuw from 2003-05-06 06:51:58 to 2003-05-06 12:18:34
                                                                                    Next 1000 lines
Time Latitude Longitude Speed Direction Temperature Pressure Humidity
2003-05-06 06:52:04 51°13.6 2°56.1 3.8 122 11.8 101850 70
2003-05-06 06:52:08 51°13.6 2°56.11 2 109 11.8 101850 70
2003-05-06 06:52:14 51°13.6 2°56.11 1.8 112 11.8 101850 70
2003-05-06 06:52:20 51°13.6 2°56.11 1.9 105 11.8 101850 70
2003-05-06 06:52:24 51°13.6 2°56.11 1.7 149 11.8 101850 70
2003-05-06 06:52:30 51°13.6 2°56.11 1.8 88 11.8 101850 70
2003-05-06 06:52:34 51°13.6 2°56.11 1.5 114 11.8 101850 70
2003-05-06 06:52:40 51°13.6 2°56.11 2.5 126 11.8 101850 70
2003-05-06 06:52:44 51°13.6 2°56.11 2.2 111 11.8 101850 70
2003-05-06 06:52:50 51°13.6 2°56.11 2.1 123 11.8 101850 70
2003-05-06 06:52:54 51°13.6 2°56.11 1.7 115 11.8 101860 70
2003-05-06 06:53:00 51°13.6 2°56.11 2.2 127 11.8 101860 70
2003-05-06 06:53:04 51°13.6 2°56.11 2.1 154 11.8 101850 70
2003-05-06 06:53:10 51°13.6 2°56.11 4 125 11.8 101850 70
2003-05-06 06:53:14 51°13.6 2°56.11 5.1 130 11.8 101860 69
2003-05-06 06:53:20 51°13.6 2°56.11 3.6 134 11.8 101860 69
2003-05-06 06:53:24 51°13.6 2°56.11 4.1 141 11.9 101850 70
2003-05-06 06:53:30 51°13.6 2°56.11 3.4 114 11.9 101850 70
2003-05-06 06:53:34 51°13.6 2°56.11 3.2 106 11.8 101850 70
2003-05-06 06:53:40 51°13.6 2°56.1 3.8 134 11.8 101850 70
2003-05-06 06:53:44 51°13.6 2°56.11 3.8 124 11.8 101860 69
2003-05-06 06:53:50 51°13.6 2°56.11 2.9 103 11.8 101860 69
2003-05-06 06:53:54 51°13.6 2°56.11 4.3 115 11.9 101860 69
2003-05-06 06:54:00 51°13.6 2°56.11 4.2 119 11.9 101860 69
2003-05-06 06:54:04 51°13.6 2°56.1 3.3 109 11.9 101850 69
2003-05-06 06:54:10 51°13.6 2°56.1 2.9 110 11.9 101850 69
2003-05-06 06:54:14 51°13.6 2°56.1 2.6 116 11.9 101860 69
2003-05-06 06:54:20 51°13.6 2°56.1 2.9 121 11.9 101860 69
2003-05-06 06:54:24 51°13.6 2°56.1 2.8 122 11.8 101860 69
2003-05-06 06:54:30 51°13.6 2°56.1 2.7 109 11.8 101860 69
2003-05-06 06:54:34 51°13.6 2°56.1 1.9 108 11.8 101850 69
2003-05-06 06:54:40 51°13.6 2°56.1 2.3 105 11.8 101850 69
2003-05-06 06:54:44 51°13.6 2°56.09 2.6 102 11.9 101850 69
2003-05-06 06:54:48 51°13.6 2°56.09 3.4 126 11.9 101850 69
2003-05-06 06:54:56 51°13.6 2°56.09 3.9 125 11.9 101850 69
2003-05-06 06:55:00 51°13.61 2°56.08 4.1 120 11.9 101850 69
2003-05-06 06:55:06 51°13.61 2°56.08 4.1 107 11.9 101850 69
2003-05-06 06:55:12 51°13.61 2°56.07 3.8 118 11.9 101850 69
2003-05-06 06:55:18 51°13.61 2°56.06 4.5 119 11.9 101850 69
2003-05-06 06:55:24 51°13.61 2°56.06 4.9 130 11.9 101850 69
2003-05-06 06:55:28 51°13.61 2°56.05 3.9 123 11.9 101860 69
2003-05-06 06:55:34 51°13.62 2°56.04 4 128 11.9 101860 69
2003-05-06 06:55:40 51°13.62 2°56.03 4.1 136 11.9 101850 69
2003-05-06 06:55:44 51°13.62 2°56.03 5.4 144 11.9 101850 69
2003-05-06 06:55:50 51°13.62 2°56.02 4.3 130 11.9 101850 69
2003-05-06 06:55:54 51°13.62 2°56.01 6 148 11.9 101850 69
2003-05-06 06:56:00 51°13.62 2°56 5.8 144 11.9 101850 69
2003-05-06 06:56:04 51°13.63 2°55.99 6.7 136 11.9 101850 69
2003-05-06 06:56:10 51°13.63 2°55.98 6.3 138 11.9 101850 69
2003-05-06 06:56:14 51°13.63 2°55.98 5.9 149 11.9 101850 69
2003-05-06 06:56:20 51°13.63 2°55.97 6.2 134 11.9 101860 69
2003-05-06 06:56:24 51°13.63 2°55.96 5.7 134 11.9 101860 69
2003-05-06 06:56:30 51°13.64 2°55.95 5.1 143 11.9 101850 69
2003-05-06 06:56:34 51°13.64 2°55.94 6.6 144 11.9 101850 69
2003-05-06 06:56:40 51°13.64 2°55.93 6.6 143 11.9 101850 69
2003-05-06 06:56:44 51°13.64 2°55.93 7.1 139 11.9 101850 69
2003-05-06 06:56:50 51°13.65 2°55.92 7.8 134 11.9 101850 69
2003-05-06 06:56:54 51°13.65 2°55.91 6.9 137 11.9 101850 69
2003-05-06 06:57:00 51°13.65 2°55.9 7.3 141 11.8 101850 69
2003-05-06 06:57:04 51°13.65 2°55.89 5.1 142 11.8 101850 69
2003-05-06 06:57:10 51°13.66 2°55.88 6.5 142 11.8 101850 68
2003-05-06 06:57:14 51°13.66 2°55.87 6.7 133 11.8 101850 68
2003-05-06 06:57:20 51°13.66 2°55.86 5.8 135 11.8 101850 68
2003-05-06 06:57:24 51°13.67 2°55.85 5.8 145 11.8 101850 68
2003-05-06 06:57:30 51°13.67 2°55.84 5.9 135 11.8 101850 69
2003-05-06 06:57:34 51°13.67 2°55.83 6.7 144 11.8 101850 69
2003-05-06 06:57:40 51°13.67 2°55.82 6.7 134 11.8 101860 69
2003-05-06 06:57:44 51°13.68 2°55.82 7 134 11.8 101860 69
2003-05-06 06:57:50 51°13.68 2°55.81 7.5 130 11.8 101850 69
2003-05-06 06:57:54 51°13.68 2°55.8 7 121 11.8 101850 69
2003-05-06 06:58:00 51°13.68 2°55.79 6.3 126 11.8 101850 69
2003-05-06 06:58:04 51°13.68 2°55.79 6 130 11.8 101850 69
2003-05-06 06:58:10 51°13.69 2°55.78 6 126 11.8 101850 69
2003-05-06 06:58:14 51°13.69 2°55.78 5.2 116 11.8 101850 69
2003-05-06 06:58:18 51°13.69 2°55.77 5.7 112 11.8 101860 68
2003-05-06 06:58:24 51°13.69 2°55.77 4.6 114 11.8 101860 68
2003-05-06 06:58:28 51°13.69 2°55.77 3.3 107 11.8 101850 69
2003-05-06 06:58:32 51°13.69 2°55.77 4.6 93 11.8 101850 69
2003-05-06 06:58:36 51°13.69 2°55.77 5.3 93 11.8 101860 69
2003-05-06 06:58:42 51°13.69 2°55.77 4.1 100 11.8 101860 69
2003-05-06 06:58:46 51°13.69 2°55.77 3.5 103 11.8 101850 69
2003-05-06 06:58:50 51°13.69 2°55.78 4.4 64 11.8 101850 69
2003-05-06 06:58:56 51°13.69 2°55.78 4.2 52 11.8 101850 69
2003-05-06 06:59:00 51°13.69 2°55.78 5.1 74 11.8 101850 69
2003-05-06 06:59:04 51°13.69 2°55.79 5.3 56 11.8 101850 69
2003-05-06 06:59:10 51°13.69 2°55.79 4.9 79 11.8 101850 69
2003-05-06 06:59:14 51°13.69 2°55.79 5.5 62 11.8 101850 69
2003-05-06 06:59:20 51°13.69 2°55.79 4.7 58 11.8 101850 69
2003-05-06 06:59:24 51°13.7 2°55.79 5.5 65 11.8 101850 69
2003-05-06 06:59:28 51°13.69 2°55.79 4.6 70 11.8 101850 69
2003-05-06 06:59:34 51°13.69 2°55.79 4.4 71 11.8 101850 69
2003-05-06 06:59:40 51°13.69 2°55.79 5.2 65 11.8 101850 69
2003-05-06 06:59:44 51°13.69 2°55.79 6.3 72 11.8 101850 69
2003-05-06 06:59:50 51°13.69 2°55.78 6.3 63 11.8 101850 69
2003-05-06 06:59:56 51°13.69 2°55.78 6 56 11.8 101850 69
2003-05-06 07:00:02 51°13.69 2°55.78 5.2 53 11.8 101850 69
2003-05-06 07:00:06 51°13.69 2°55.77 5.2 60 11.8 101860 69
2003-05-06 07:00:12 51°13.68 2°55.77 6.6 43 11.8 101860 69
2003-05-06 07:00:18 51°13.68 2°55.77 5.2 128 11.8 101860 69
2003-05-06 07:00:24 51°13.68 2°55.77 4.9 59 11.8 101860 69
2003-05-06 07:00:30 51°13.68 2°55.77 4.8 41 11.8 101860 69
2003-05-06 07:00:34 51°13.68 2°55.77 4.4 59 11.8 101860 69
2003-05-06 07:00:40 51°13.68 2°55.77 5.7 37 11.8 101860 69
2003-05-06 07:00:44 51°13.69 2°55.77 6.9 36 11.8 101860 69
2003-05-06 07:00:50 51°13.69 2°55.77 6.1 27 11.8 101860 69
2003-05-06 07:00:54 51°13.69 2°55.77 4.7 359 11.8 101860 69
2003-05-06 07:01:00 51°13.69 2°55.77 5.4 3 11.8 101860 69
2003-05-06 07:01:04 51°13.7 2°55.77 6 353 11.8 101860 68
2003-05-06 07:01:10 51°13.7 2°55.77 5.5 335 11.8 101860 68
2003-05-06 07:01:14 51°13.7 2°55.76 5.2 4 11.8 101860 68
2003-05-06 07:01:20 51°13.71 2°55.76 4.6 334 11.8 101850 68
2003-05-06 07:01:24 51°13.71 2°55.76 4.9 346 11.8 101850 68
2003-05-06 07:01:28 51°13.71 2°55.76 6.5 344 11.8 101860 68
2003-05-06 07:01:34 51°13.71 2°55.75 5.3 335 11.8 101860 68
2003-05-06 07:01:38 51°13.72 2°55.75 5.2 337 11.8 101860 68
2003-05-06 07:01:42 51°13.72 2°55.75 5.6 324 11.8 101860 68
2003-05-06 07:01:48 51°13.72 2°55.74 4.9 338 11.8 101860 68
2003-05-06 07:01:52 51°13.72 2°55.74 4.8 333 11.8 101860 68
2003-05-06 07:01:56 51°13.72 2°55.74 5.9 334 11.8 101860 68
2003-05-06 07:02:00 51°13.73 2°55.74 5.7 336 11.8 101860 68
2003-05-06 07:02:06 51°13.73 2°55.73 6.4 329 11.8 101860 68
2003-05-06 07:02:10 51°13.73 2°55.73 6.2 340 11.8 101860 68
2003-05-06 07:02:14 51°13.73 2°55.73 6.1 334 11.8 101860 68
2003-05-06 07:02:20 51°13.74 2°55.72 5.9 334 11.8 101860 68
2003-05-06 07:02:24 51°13.74 2°55.72 6.9 338 11.8 101860 68
2003-05-06 07:02:30 51°13.74 2°55.72 6.4 345 11.8 101860 68
2003-05-06 07:02:34 51°13.74 2°55.71 6.1 339 11.8 101860 68
2003-05-06 07:02:40 51°13.74 2°55.71 6.7 341 11.8 101860 68
2003-05-06 07:02:44 51°13.75 2°55.71 7.2 342 11.8 101860 68
2003-05-06 07:02:50 51°13.75 2°55.7 6.9 340 11.8 101860 68
2003-05-06 07:02:54 51°13.75 2°55.7 6.8 328 11.8 101860 68
2003-05-06 07:03:00 51°13.76 2°55.69 7.4 345 11.8 101860 68
2003-05-06 07:03:04 51°13.76 2°55.69 7.1 346 11.8 101870 68
2003-05-06 07:03:10 51°13.77 2°55.68 7 349 11.8 101870 68
2003-05-06 07:03:14 51°13.77 2°55.68 7.8 347 11.8 101870 68
2003-05-06 07:03:20 51°13.78 2°55.67 8.1 341 11.8 101860 68
2003-05-06 07:03:24 51°13.79 2°55.67 7.9 348 11.8 101860 68
2003-05-06 07:03:30 51°13.79 2°55.66 7.8 347 11.8 101860 68
2003-05-06 07:03:34 51°13.8 2°55.66 7.7 349 11.8 101860 68
2003-05-06 07:03:40 51°13.81 2°55.65 9.4 348 11.8 101870 69
2003-05-06 07:03:44 51°13.82 2°55.65 9 347 11.8 101870 69
2003-05-06 07:03:50 51°13.83 2°55.64 9 347 11.8 101870 69
2003-05-06 07:03:54 51°13.83 2°55.63 8.8 350 11.8 101860 69
2003-05-06 07:04:00 51°13.84 2°55.63 8.9 357 11.8 101860 69
2003-05-06 07:04:04 51°13.85 2°55.62 9 354 11.8 101860 69
2003-05-06 07:04:10 51°13.86 2°55.61 8.6 350 11.8 101860 69
2003-05-06 07:04:14 51°13.87 2°55.61 9.1 349 11.8 101860 69
2003-05-06 07:04:20 51°13.88 2°55.6 9.3 350 11.8 101860 70
2003-05-06 07:04:24 51°13.89 2°55.59 9.1 346 11.8 101860 70
2003-05-06 07:04:30 51°13.9 2°55.59 8.2 344 11.8 101860 70
2003-05-06 07:04:36 51°13.91 2°55.58 8.5 348 11.8 101860 70
2003-05-06 07:04:40 51°13.92 2°55.57 9.1 347 11.8 101860 69
2003-05-06 07:04:44 51°13.92 2°55.57 9.9 345 11.8 101860 69
2003-05-06 07:04:50 51°13.93 2°55.56 9.9 347 11.8 101860 69
2003-05-06 07:04:54 51°13.94 2°55.55 8.8 350 11.8 101860 69
2003-05-06 07:05:00 51°13.95 2°55.54 9.3 350 11.8 101860 70
2003-05-06 07:05:04 51°13.96 2°55.54 8.8 349 11.8 101860 70
2003-05-06 07:05:10 51°13.97 2°55.53 9.1 347 11.8 101860 69
2003-05-06 07:05:14 51°13.98 2°55.52 8.8 350 11.8 101860 69
2003-05-06 07:05:20 51°13.99 2°55.51 9.4 343 11.8 101860 69
2003-05-06 07:05:24 51°14 2°55.51 8.8 352 11.8 101860 69
2003-05-06 07:05:30 51°14.01 2°55.5 9.9 353 11.8 101860 69
2003-05-06 07:05:34 51°14.02 2°55.49 9.4 354 11.8 101860 69
2003-05-06 07:05:40 51°14.03 2°55.48 9.7 352 11.8 101860 70
2003-05-06 07:05:44 51°14.04 2°55.48 10.6 347 11.8 101860 70
2003-05-06 07:05:48 51°14.05 2°55.47 9.4 354 11.8 101860 70
2003-05-06 07:05:54 51°14.06 2°55.46 9.8 349 11.8 101860 70
2003-05-06 07:06:00 51°14.07 2°55.45 10.8 350 11.8 101860 70
2003-05-06 07:06:04 51°14.08 2°55.45 9.6 346 11.8 101860 70
2003-05-06 07:06:10 51°14.09 2°55.44 8.9 350 11.8 101860 70
2003-05-06 07:06:14 51°14.1 2°55.43 9.1 351 11.7 101860 70
2003-05-06 07:06:20 51°14.11 2°55.42 8.1 350 11.7 101860 70
2003-05-06 07:06:24 51°14.12 2°55.42 9.5 350 11.7 101860 70
2003-05-06 07:06:30 51°14.13 2°55.41 8.6 344 11.7 101850 70
2003-05-06 07:06:34 51°14.14 2°55.4 8.9 347 11.7 101850 70
2003-05-06 07:06:40 51°14.15 2°55.39 8.6 340 11.7 101860 70
2003-05-06 07:06:44 51°14.16 2°55.38 8.3 342 11.7 101860 70
2003-05-06 07:06:50 51°14.17 2°55.37 8.7 350 11.7 101850 70
2003-05-06 07:06:54 51°14.18 2°55.36 9.4 346 11.7 101850 70
2003-05-06 07:07:00 51°14.19 2°55.35 8.6 347 11.7 101850 70
2003-05-06 07:07:04 51°14.2 2°55.35 9.9 341 11.7 101850 70
2003-05-06 07:07:10 51°14.21 2°55.33 9.3 345 11.7 101850 70
2003-05-06 07:07:16 51°14.22 2°55.32 8.2 346 11.7 101850 70
2003-05-06 07:07:20 51°14.23 2°55.31 9 338 11.7 101850 70
2003-05-06 07:07:24 51°14.24 2°55.3 9.3 344 11.7 101850 70
2003-05-06 07:07:30 51°14.25 2°55.29 9.3 342 11.7 101850 70
2003-05-06 07:07:34 51°14.25 2°55.28 7.7 344 11.7 101850 70
2003-05-06 07:07:40 51°14.26 2°55.26 8.5 335 11.7 101850 70
2003-05-06 07:07:44 51°14.27 2°55.25 7.2 340 11.7 101850 70
2003-05-06 07:07:50 51°14.28 2°55.23 9.3 343 11.7 101850 70
2003-05-06 07:07:54 51°14.29 2°55.22 10.4 334 11.7 101850 70
2003-05-06 07:08:00 51°14.3 2°55.2 10.3 328 11.7 101850 71
2003-05-06 07:08:04 51°14.31 2°55.19 6.4 341 11.7 101850 71
2003-05-06 07:08:10 51°14.32 2°55.17 9.6 338 11.7 101850 71
2003-05-06 07:08:14 51°14.32 2°55.16 7.5 326 11.7 101850 71
2003-05-06 07:08:20 51°14.33 2°55.14 10.4 333 11.6 101840 70
2003-05-06 07:08:24 51°14.34 2°55.13 9.8 334 11.6 101840 70
2003-05-06 07:08:30 51°14.35 2°55.11 10.4 329 11.6 101850 70
2003-05-06 07:08:34 51°14.35 2°55.09 11.1 329 11.6 101850 70
2003-05-06 07:08:40 51°14.36 2°55.07 10.6 327 11.6 101850 70
2003-05-06 07:08:44 51°14.37 2°55.06 10.5 328 11.6 101850 70
2003-05-06 07:08:50 51°14.38 2°55.04 11 328 11.6 101850 70
2003-05-06 07:08:54 51°14.38 2°55.03 10.7 325 11.6 101840 70
2003-05-06 07:09:00 51°14.39 2°55 10.8 322 11.6 101830 70
2003-05-06 07:09:04 51°14.4 2°54.99 9.7 326 11.6 101830 70
2003-05-06 07:09:10 51°14.4 2°54.97 9.5 322 11.6 101840 70
2003-05-06 07:09:14 51°14.41 2°54.95 10.3 321 11.6 101840 70
2003-05-06 07:09:20 51°14.41 2°54.93 9.6 318 11.6 101840 70
2003-05-06 07:09:24 51°14.41 2°54.91 10.2 320 11.6 101840 70
2003-05-06 07:09:30 51°14.42 2°54.89 10.3 322 11.6 101840 71
2003-05-06 07:09:34 51°14.42 2°54.87 10.3 320 11.6 101840 71
2003-05-06 07:09:40 51°14.43 2°54.85 9.6 319 11.6 101840 70
2003-05-06 07:09:44 51°14.43 2°54.83 9.8 319 11.6 101840 70
2003-05-06 07:09:50 51°14.43 2°54.81 9.5 317 11.6 101840 70
2003-05-06 07:09:54 51°14.43 2°54.79 4.4 315 11.5 101840 70
2003-05-06 07:10:00 51°14.44 2°54.77 8.8 313 11.5 101840 70
2003-05-06 07:10:04 51°14.44 2°54.76 9 310 11.5 101840 70
2003-05-06 07:10:10 51°14.44 2°54.74 8.5 311 11.5 101850 70
2003-05-06 07:10:14 51°14.44 2°54.73 8.3 310 11.5 101850 70
2003-05-06 07:10:20 51°14.44 2°54.71 7.9 316 11.5 101850 70
2003-05-06 07:10:24 51°14.44 2°54.7 7.7 311 11.5 101850 70
2003-05-06 07:10:28 51°14.45 2°54.69 7.1 308 11.5 101850 70
2003-05-06 07:10:34 51°14.45 2°54.67 7.3 307 11.5 101850 70
2003-05-06 07:10:40 51°14.45 2°54.66 7.5 302 11.5 101850 71
2003-05-06 07:10:44 51°14.45 2°54.65 7.4 295 11.5 101850 71
2003-05-06 07:10:50 51°14.45 2°54.64 7.5 290 11.5 101850 71
2003-05-06 07:10:54 51°14.45 2°54.63 8 276 11.5 101860 71
2003-05-06 07:11:00 51°14.44 2°54.62 7.7 278 11.5 101860 71
2003-05-06 07:11:04 51°14.44 2°54.61 7.6 279 11.5 101860 71
2003-05-06 07:11:10 51°14.44 2°54.6 6.9 279 11.5 101860 71
2003-05-06 07:11:14 51°14.44 2°54.59 6.3 281 11.5 101860 71
2003-05-06 07:11:20 51°14.44 2°54.58 7.8 294 11.5 101860 70
2003-05-06 07:11:24 51°14.44 2°54.56 8.2 280 11.5 101860 70
2003-05-06 07:11:30 51°14.43 2°54.55 6.5 279 11.5 101860 70
2003-05-06 07:11:34 51°14.43 2°54.53 6.8 283 11.5 101860 70
2003-05-06 07:11:40 51°14.42 2°54.51 6.6 286 11.5 101860 71
2003-05-06 07:11:44 51°14.42 2°54.5 7.6 287 11.5 101860 71
2003-05-06 07:11:50 51°14.42 2°54.47 7.3 282 11.5 101860 70
2003-05-06 07:11:54 51°14.41 2°54.46 6.9 289 11.5 101860 70
2003-05-06 07:12:00 51°14.4 2°54.43 7.7 291 11.5 101860 70
2003-05-06 07:12:04 51°14.4 2°54.41 7.9 293 11.5 101860 70
2003-05-06 07:12:10 51°14.39 2°54.39 7.6 287 11.4 101860 70
2003-05-06 07:12:14 51°14.39 2°54.37 8.3 298 11.4 101860 70
2003-05-06 07:12:20 51°14.38 2°54.34 7.5 298 11.4 101870 70
2003-05-06 07:12:24 51°14.37 2°54.32 8.3 297 11.4 101870 70
2003-05-06 07:12:30 51°14.36 2°54.29 8.4 296 11.4 101870 71
2003-05-06 07:12:34 51°14.36 2°54.27 8 299 11.4 101870 71
2003-05-06 07:12:40 51°14.35 2°54.24 8.7 299 11.5 101860 71
2003-05-06 07:12:44 51°14.34 2°54.22 7 299 11.5 101860 71
2003-05-06 07:12:50 51°14.33 2°54.19 7.5 296 11.5 101860 71
2003-05-06 07:12:54 51°14.33 2°54.18 6.8 290 11.4 101870 71
2003-05-06 07:13:00 51°14.32 2°54.15 7.3 292 11.4 101870 71
2003-05-06 07:13:04 51°14.31 2°54.13 6 284 11.4 101870 71
2003-05-06 07:13:10 51°14.31 2°54.11 6.3 284 11.4 101870 71
2003-05-06 07:13:14 51°14.3 2°54.1 6.8 281 11.4 101870 71
2003-05-06 07:13:20 51°14.3 2°54.08 7.6 276 11.4 101870 71
2003-05-06 07:13:24 51°14.29 2°54.07 6.5 278 11.4 101870 71
2003-05-06 07:13:28 51°14.29 2°54.06 6.8 267 11.4 101870 71
2003-05-06 07:13:34 51°14.28 2°54.04 6 263 11.5 101870 71
2003-05-06 07:13:40 51°14.28 2°54.02 7.1 276 11.4 101880 71
2003-05-06 07:13:44 51°14.27 2°54.01 7.1 269 11.4 101880 71
2003-05-06 07:13:50 51°14.27 2°54 6.6 276 11.5 101880 71
2003-05-06 07:13:54 51°14.27 2°53.99 6.4 277 11.5 101880 71
2003-05-06 07:14:00 51°14.26 2°53.97 6.8 266 11.5 101880 71
2003-05-06 07:14:04 51°14.26 2°53.96 7.1 264 11.4 101880 71
2003-05-06 07:14:10 51°14.26 2°53.95 6.5 260 11.4 101880 71
2003-05-06 07:14:14 51°14.25 2°53.94 6.1 263 11.4 101880 71
2003-05-06 07:14:20 51°14.25 2°53.93 7 262 11.4 101880 71
2003-05-06 07:14:24 51°14.25 2°53.93 7.2 256 11.4 101880 71
2003-05-06 07:14:30 51°14.25 2°53.92 6.4 255 11.4 101880 71
2003-05-06 07:14:34 51°14.24 2°53.91 6.3 256 11.4 101880 71
2003-05-06 07:14:40 51°14.24 2°53.91 6 254 11.4 101880 71
2003-05-06 07:14:44 51°14.24 2°53.9 6.5 254 11.4 101880 71
2003-05-06 07:14:50 51°14.24 2°53.89 6.6 263 11.4 101880 71
2003-05-06 07:14:54 51°14.24 2°53.89 6.7 262 11.4 101880 70
2003-05-06 07:15:00 51°14.23 2°53.88 6.9 266 11.4 101880 70
2003-05-06 07:15:04 51°14.23 2°53.88 6.7 265 11.4 101880 70
2003-05-06 07:15:10 51°14.23 2°53.87 6.5 263 11.4 101880 70
2003-05-06 07:15:14 51°14.23 2°53.87 6.8 261 11.4 101880 70
2003-05-06 07:15:20 51°14.23 2°53.86 7.2 260 11.4 101880 70
2003-05-06 07:15:24 51°14.23 2°53.85 6.3 256 11.4 101880 70
2003-05-06 07:15:30 51°14.22 2°53.85 6.2 256 11.4 101880 70
2003-05-06 07:15:34 51°14.22 2°53.84 6.5 259 11.4 101880 70
2003-05-06 07:15:40 51°14.22 2°53.83 6.6 261 11.4 101880 70
2003-05-06 07:15:44 51°14.22 2°53.83 7.1 270 11.4 101880 70
2003-05-06 07:15:50 51°14.22 2°53.82 6.8 266 11.4 101880 70
2003-05-06 07:15:54 51°14.22 2°53.82 6.5 260 11.4 101880 70
2003-05-06 07:16:00 51°14.21 2°53.81 6.3 262 11.4 101880 70
2003-05-06 07:16:04 51°14.21 2°53.81 7.2 265 11.4 101880 70
2003-05-06 07:16:10 51°14.21 2°53.8 7.3 267 11.4 101880 70
2003-05-06 07:16:14 51°14.21 2°53.79 7.1 262 11.4 101880 70
2003-05-06 07:16:20 51°14.21 2°53.79 7.1 265 11.4 101880 70
2003-05-06 07:16:24 51°14.21 2°53.78 7 265 11.5 101880 71
2003-05-06 07:16:30 51°14.2 2°53.77 7.3 261 11.5 101880 71
2003-05-06 07:16:34 51°14.2 2°53.77 6.5 263 11.5 101880 70
2003-05-06 07:16:40 51°14.2 2°53.76 6.5 262 11.4 101880 70
2003-05-06 07:16:44 51°14.2 2°53.76 7 262 11.4 101880 70
2003-05-06 07:16:50 51°14.2 2°53.75 6.9 268 11.4 101880 70
2003-05-06 07:16:54 51°14.2 2°53.75 6.6 262 11.4 101880 70
2003-05-06 07:17:00 51°14.19 2°53.74 6.8 266 11.4 101880 71
2003-05-06 07:17:04 51°14.19 2°53.73 7.1 265 11.4 101880 71
2003-05-06 07:17:10 51°14.19 2°53.73 7.7 263 11.4 101880 71
2003-05-06 07:17:14 51°14.19 2°53.72 7.8 256 11.4 101880 71
2003-05-06 07:17:20 51°14.19 2°53.71 7.7 265 11.4 101880 70
2003-05-06 07:17:24 51°14.19 2°53.71 7.6 268 11.4 101880 70
2003-05-06 07:17:30 51°14.18 2°53.7 8 263 11.4 101880 70
2003-05-06 07:17:34 51°14.18 2°53.7 7.4 264 11.4 101880 70
2003-05-06 07:17:40 51°14.18 2°53.69 7.4 264 11.4 101880 70
2003-05-06 07:17:44 51°14.18 2°53.68 6.9 264 11.4 101880 70
2003-05-06 07:17:50 51°14.18 2°53.68 7.2 260 11.4 101880 69
2003-05-06 07:17:54 51°14.18 2°53.67 6.7 261 11.4 101880 69
2003-05-06 07:18:00 51°14.17 2°53.67 7 262 11.4 101880 69
2003-05-06 07:18:04 51°14.17 2°53.66 6.9 262 11.4 101880 69
2003-05-06 07:18:10 51°14.17 2°53.65 6.2 269 11.4 101880 70
2003-05-06 07:18:14 51°14.17 2°53.65 6.3 261 11.4 101880 70
2003-05-06 07:18:20 51°14.17 2°53.64 5.8 266 11.4 101880 70
2003-05-06 07:18:24 51°14.17 2°53.64 6.2 261 11.4 101880 70
2003-05-06 07:18:30 51°14.16 2°53.63 6 265 11.4 101880 70
2003-05-06 07:18:34 51°14.16 2°53.63 6 263 11.4 101880 70
2003-05-06 07:18:40 51°14.16 2°53.62 6.6 262 11.4 101890 70
2003-05-06 07:18:44 51°14.16 2°53.61 6.7 266 11.4 101890 70
2003-05-06 07:18:50 51°14.16 2°53.61 7 263 11.5 101880 70
2003-05-06 07:18:54 51°14.16 2°53.6 6 262 11.5 101880 70
2003-05-06 07:19:00 51°14.16 2°53.59 5.9 265 11.5 101890 70
2003-05-06 07:19:04 51°14.15 2°53.59 6.3 261 11.5 101890 70
2003-05-06 07:19:08 51°14.15 2°53.58 6.1 265 11.5 101890 70
2003-05-06 07:19:14 51°14.15 2°53.58 7 264 11.5 101880 70
2003-05-06 07:19:20 51°14.15 2°53.57 7.5 265 11.5 101880 70
2003-05-06 07:19:24 51°14.15 2°53.56 7.1 269 11.5 101880 70
2003-05-06 07:19:30 51°14.14 2°53.54 7.5 268 11.5 101880 71
2003-05-06 07:19:34 51°14.14 2°53.53 7.5 269 11.5 101880 71
2003-05-06 07:19:40 51°14.13 2°53.52 6.9 265 11.5 101890 70
2003-05-06 07:19:44 51°14.13 2°53.5 7.3 269 11.5 101890 70
2003-05-06 07:19:48 51°14.12 2°53.49 6.5 268 11.5 101890 70
2003-05-06 07:19:54 51°14.12 2°53.47 6.5 279 11.5 101880 70
2003-05-06 07:20:00 51°14.11 2°53.45 6.5 278 11.4 101890 70
2003-05-06 07:20:04 51°14.1 2°53.44 6.3 276 11.4 101890 70
2003-05-06 07:20:10 51°14.09 2°53.42 6.6 273 11.4 101890 70
2003-05-06 07:20:14 51°14.08 2°53.41 6.6 277 11.4 101890 70
2003-05-06 07:20:20 51°14.07 2°53.39 6.9 278 11.4 101890 70
2003-05-06 07:20:24 51°14.06 2°53.38 7 281 11.5 101890 70
2003-05-06 07:20:30 51°14.05 2°53.35 5.4 287 11.5 101890 70
2003-05-06 07:20:34 51°14.04 2°53.34 6.2 291 11.5 101890 70
2003-05-06 07:20:40 51°14.03 2°53.31 6.1 286 11.5 101890 70
2003-05-06 07:20:44 51°14.02 2°53.3 6.7 287 11.5 101890 70
2003-05-06 07:20:50 51°14.01 2°53.27 6.9 290 11.5 101890 70
2003-05-06 07:20:54 51°14.01 2°53.25 6.9 292 11.5 101890 70
2003-05-06 07:21:00 51°13.99 2°53.23 6.7 293 11.5 101890 70
2003-05-06 07:21:04 51°13.99 2°53.21 8 297 11.4 101890 70
2003-05-06 07:21:10 51°13.98 2°53.18 7.4 292 11.4 101890 70
2003-05-06 07:21:14 51°13.97 2°53.16 6.7 288 11.4 101890 69
2003-05-06 07:21:20 51°13.96 2°53.14 7.1 292 11.4 101900 69
2003-05-06 07:21:24 51°13.95 2°53.12 7.5 298 11.4 101900 69
2003-05-06 07:21:30 51°13.94 2°53.09 7.9 294 11.4 101900 70
2003-05-06 07:21:34 51°13.93 2°53.07 8.3 297 11.4 101900 70
2003-05-06 07:21:40 51°13.92 2°53.04 8.6 298 11.4 101900 70
2003-05-06 07:21:44 51°13.91 2°53.02 7.9 298 11.4 101900 70
2003-05-06 07:21:50 51°13.9 2°52.99 8.6 300 11.4 101900 70
2003-05-06 07:21:54 51°13.9 2°52.97 8.7 295 11.4 101900 70
2003-05-06 07:22:00 51°13.88 2°52.94 7.5 298 11.4 101900 70
2003-05-06 07:22:04 51°13.88 2°52.92 7.8 296 11.4 101900 70
2003-05-06 07:22:10 51°13.87 2°52.89 8.8 297 11.5 101900 70
2003-05-06 07:22:14 51°13.86 2°52.87 7.9 296 11.5 101900 70
2003-05-06 07:22:20 51°13.85 2°52.84 7.8 291 11.4 101900 70
2003-05-06 07:22:24 51°13.84 2°52.82 7.7 297 11.4 101900 70
2003-05-06 07:22:30 51°13.83 2°52.79 7.7 302 11.4 101900 70
2003-05-06 07:22:34 51°13.82 2°52.77 8.6 298 11.4 101900 70
2003-05-06 07:22:40 51°13.81 2°52.74 8.2 292 11.4 101900 70
2003-05-06 07:22:44 51°13.8 2°52.72 8.3 293 11.4 101900 70
2003-05-06 07:22:50 51°13.79 2°52.69 8.5 294 11.4 101900 70
2003-05-06 07:22:54 51°13.78 2°52.67 8 297 11.4 101900 70
2003-05-06 07:23:00 51°13.77 2°52.64 8.1 300 11.4 101900 70
2003-05-06 07:23:04 51°13.76 2°52.62 7.3 300 11.4 101900 70
2003-05-06 07:23:10 51°13.75 2°52.59 7.8 297 11.4 101900 69
2003-05-06 07:23:14 51°13.74 2°52.57 8.5 304 11.4 101900 69
2003-05-06 07:23:20 51°13.73 2°52.54 7.8 295 11.4 101900 70
2003-05-06 07:23:24 51°13.72 2°52.52 8 302 11.4 101900 70
2003-05-06 07:23:30 51°13.71 2°52.49 8.5 299 11.4 101900 70
2003-05-06 07:23:34 51°13.71 2°52.47 8.7 300 11.4 101900 70
2003-05-06 07:23:40 51°13.69 2°52.45 7.9 292 11.4 101900 70
2003-05-06 07:23:44 51°13.69 2°52.43 7.5 301 11.4 101900 70
2003-05-06 07:23:48 51°13.68 2°52.41 8.2 298 11.4 101900 70
2003-05-06 07:23:54 51°13.67 2°52.38 8.3 297 11.4 101900 70
2003-05-06 07:24:00 51°13.66 2°52.35 8.6 297 11.4 101900 70
2003-05-06 07:24:04 51°13.65 2°52.33 8.5 302 11.4 101900 70
2003-05-06 07:24:10 51°13.64 2°52.3 7.9 295 11.4 101900 70
2003-05-06 07:24:14 51°13.63 2°52.28 9 301 11.4 101900 70
2003-05-06 07:24:20 51°13.62 2°52.25 8.7 301 11.4 101900 70
2003-05-06 07:24:24 51°13.61 2°52.22 8.8 297 11.4 101900 70
2003-05-06 07:24:28 51°13.6 2°52.2 8.7 300 11.4 101900 70
2003-05-06 07:24:34 51°13.59 2°52.17 8.6 298 11.4 101900 70
2003-05-06 07:24:40 51°13.58 2°52.14 9 295 11.4 101900 70
2003-05-06 07:24:44 51°13.58 2°52.12 8.8 304 11.4 101900 70
2003-05-06 07:24:50 51°13.57 2°52.09 9 299 11.4 101900 70
2003-05-06 07:24:54 51°13.56 2°52.07 9.2 300 11.4 101900 70
2003-05-06 07:25:00 51°13.55 2°52.04 9.6 297 11.4 101900 70
2003-05-06 07:25:04 51°13.54 2°52.02 8.6 298 11.3 101900 70
2003-05-06 07:25:08 51°13.53 2°52 7.8 298 11.3 101900 70
2003-05-06 07:25:14 51°13.52 2°51.97 9.5 298 11.4 101900 70
2003-05-06 07:25:20 51°13.51 2°51.94 9.2 298 11.4 101900 70
2003-05-06 07:25:24 51°13.5 2°51.92 8.5 301 11.4 101900 70
2003-05-06 07:25:30 51°13.49 2°51.89 8.7 295 11.4 101900 70
2003-05-06 07:25:34 51°13.48 2°51.87 8.7 297 11.4 101900 70
2003-05-06 07:25:40 51°13.47 2°51.84 8.3 299 11.4 101900 70
2003-05-06 07:25:44 51°13.47 2°51.82 8.9 301 11.4 101900 70
2003-05-06 07:25:50 51°13.46 2°51.79 8.4 299 11.4 101900 70
2003-05-06 07:25:54 51°13.45 2°51.77 8.1 302 11.4 101900 70
2003-05-06 07:26:00 51°13.44 2°51.74 9 300 11.4 101900 70
2003-05-06 07:26:04 51°13.43 2°51.72 8.5 295 11.4 101900 70
2003-05-06 07:26:10 51°13.42 2°51.69 8.2 296 11.4 101900 70
2003-05-06 07:26:14 51°13.41 2°51.67 8.8 308 11.3 101900 70
2003-05-06 07:26:20 51°13.4 2°51.63 8.6 294 11.4 101900 70
2003-05-06 07:26:24 51°13.39 2°51.61 9.3 297 11.4 101900 70
2003-05-06 07:26:30 51°13.38 2°51.58 8.8 298 11.4 101900 70
2003-05-06 07:26:34 51°13.37 2°51.56 9.2 296 11.4 101900 70
2003-05-06 07:26:40 51°13.36 2°51.53 8.7 295 11.3 101900 70
2003-05-06 07:26:44 51°13.36 2°51.51 8.2 299 11.3 101900 70
2003-05-06 07:26:50 51°13.34 2°51.48 9.4 303 11.3 101900 70
2003-05-06 07:26:54 51°13.34 2°51.46 9.1 302 11.3 101900 70
2003-05-06 07:27:00 51°13.33 2°51.43 9.3 296 11.3 101900 71
2003-05-06 07:27:04 51°13.32 2°51.41 8.7 295 11.3 101900 71
2003-05-06 07:27:10 51°13.31 2°51.37 8.6 291 11.3 101900 71
2003-05-06 07:27:14 51°13.3 2°51.35 8.2 305 11.3 101900 71
2003-05-06 07:27:20 51°13.29 2°51.32 10.2 299 11.3 101900 71
2003-05-06 07:27:24 51°13.28 2°51.3 9.2 295 11.3 101900 71
2003-05-06 07:27:30 51°13.27 2°51.27 9.1 293 11.3 101900 71
2003-05-06 07:27:34 51°13.26 2°51.25 8.7 298 11.3 101900 70
2003-05-06 07:27:40 51°13.25 2°51.21 8.1 293 11.3 101900 71
2003-05-06 07:27:44 51°13.24 2°51.19 8.4 300 11.3 101900 71
2003-05-06 07:27:50 51°13.23 2°51.16 8.5 296 11.3 101900 70
2003-05-06 07:27:54 51°13.22 2°51.14 7.9 298 11.3 101900 70
2003-05-06 07:28:00 51°13.21 2°51.11 8.5 302 11.3 101900 70
2003-05-06 07:28:04 51°13.2 2°51.09 9.6 295 11.3 101900 70
2003-05-06 07:28:10 51°13.19 2°51.05 9.1 295 11.3 101900 70
2003-05-06 07:28:14 51°13.18 2°51.03 8.8 296 11.3 101900 70
2003-05-06 07:28:20 51°13.17 2°51 8.8 301 11.3 101900 71
2003-05-06 07:28:24 51°13.16 2°50.98 9.3 301 11.3 101900 71
2003-05-06 07:28:30 51°13.15 2°50.94 9.6 302 11.3 101900 71
2003-05-06 07:28:34 51°13.14 2°50.92 8.6 305 11.3 101900 70
2003-05-06 07:28:40 51°13.13 2°50.89 8.7 306 11.3 101900 71
2003-05-06 07:28:44 51°13.12 2°50.87 8.7 306 11.3 101900 71
2003-05-06 07:28:50 51°13.11 2°50.83 9.4 302 11.3 101900 70
2003-05-06 07:28:54 51°13.1 2°50.81 9.2 299 11.3 101900 70
2003-05-06 07:29:00 51°13.09 2°50.78 9.3 300 11.3 101900 71
2003-05-06 07:29:04 51°13.08 2°50.76 8.8 300 11.3 101900 71
2003-05-06 07:29:10 51°13.07 2°50.72 8.5 304 11.3 101910 71
2003-05-06 07:29:14 51°13.06 2°50.7 9.1 304 11.3 101910 71
2003-05-06 07:29:20 51°13.05 2°50.67 9.3 305 11.3 101910 71
2003-05-06 07:29:24 51°13.04 2°50.64 9.9 303 11.3 101910 71
2003-05-06 07:29:28 51°13.03 2°50.62 9.2 304 11.3 101910 71
2003-05-06 07:29:34 51°13.02 2°50.59 9.3 303 11.3 101910 71
2003-05-06 07:29:40 51°13.01 2°50.55 9 306 11.3 101910 71
2003-05-06 07:29:44 51°13 2°50.53 9.2 301 11.3 101910 71
2003-05-06 07:29:50 51°12.99 2°50.5 9.3 301 11.3 101910 71
2003-05-06 07:29:54 51°12.98 2°50.47 9.5 304 11.3 101910 71
2003-05-06 07:30:00 51°12.97 2°50.44 8.6 304 11.3 101910 71
2003-05-06 07:30:04 51°12.96 2°50.42 9.2 303 11.3 101910 71
2003-05-06 07:30:08 51°12.95 2°50.4 9.7 299 11.3 101910 71
2003-05-06 07:30:14 51°12.94 2°50.36 9.2 304 11.3 101910 71
2003-05-06 07:30:20 51°12.93 2°50.33 9.3 303 11.4 101910 72
2003-05-06 07:30:24 51°12.92 2°50.31 9.3 302 11.4 101910 72
2003-05-06 07:30:30 51°12.91 2°50.27 9.5 302 11.3 101910 71
2003-05-06 07:30:34 51°12.9 2°50.25 9.6 297 11.3 101910 71
2003-05-06 07:30:40 51°12.89 2°50.22 8.5 302 11.3 101910 71
2003-05-06 07:30:44 51°12.88 2°50.19 9.1 304 11.3 101910 71
2003-05-06 07:30:50 51°12.87 2°50.16 9.5 303 11.3 101910 72
2003-05-06 07:30:54 51°12.86 2°50.14 9.5 304 11.3 101910 72
2003-05-06 07:31:00 51°12.85 2°50.1 8.9 307 11.3 101910 71
2003-05-06 07:31:04 51°12.84 2°50.08 9.5 303 11.3 101910 71
2003-05-06 07:31:10 51°12.83 2°50.05 8.7 307 11.3 101910 71
2003-05-06 07:31:14 51°12.82 2°50.02 9.9 305 11.3 101910 71
2003-05-06 07:31:20 51°12.81 2°49.99 9.9 304 11.3 101900 72
2003-05-06 07:31:24 51°12.8 2°49.97 9.6 298 11.3 101900 72
2003-05-06 07:31:30 51°12.79 2°49.93 8.9 299 11.3 101900 72
2003-05-06 07:31:34 51°12.78 2°49.91 8.7 303 11.3 101910 72
2003-05-06 07:31:40 51°12.77 2°49.88 9.5 303 11.3 101910 71
2003-05-06 07:31:44 51°12.76 2°49.85 9.9 303 11.3 101910 71
2003-05-06 07:31:50 51°12.75 2°49.82 9.4 302 11.2 101900 71
2003-05-06 07:31:54 51°12.74 2°49.8 8.7 304 11.2 101900 71
2003-05-06 07:32:00 51°12.73 2°49.76 10 305 11.2 101900 71
2003-05-06 07:32:04 51°12.72 2°49.74 9.7 299 11.3 101910 71
2003-05-06 07:32:10 51°12.71 2°49.71 10 305 11.3 101910 71
2003-05-06 07:32:14 51°12.7 2°49.68 9.2 299 11.3 101910 71
2003-05-06 07:32:20 51°12.69 2°49.65 9.4 304 11.3 101910 71
2003-05-06 07:32:24 51°12.68 2°49.63 9.6 308 11.3 101910 71
2003-05-06 07:32:30 51°12.67 2°49.59 9.1 301 11.3 101910 71
2003-05-06 07:32:34 51°12.66 2°49.57 9 301 11.2 101900 71
2003-05-06 07:32:40 51°12.65 2°49.54 9.3 305 11.2 101900 71
2003-05-06 07:32:44 51°12.64 2°49.51 10 306 11.2 101900 71
2003-05-06 07:32:50 51°12.63 2°49.48 9 302 11.2 101900 71
2003-05-06 07:32:54 51°12.62 2°49.46 9.5 306 11.2 101900 71
2003-05-06 07:33:00 51°12.61 2°49.42 9.8 306 11.3 101900 72
2003-05-06 07:33:04 51°12.6 2°49.4 9.7 305 11.3 101900 72
2003-05-06 07:33:10 51°12.59 2°49.37 9.4 307 11.2 101910 72
2003-05-06 07:33:14 51°12.58 2°49.34 9.4 307 11.2 101910 72
2003-05-06 07:33:20 51°12.57 2°49.31 9.6 304 11.3 101900 72
2003-05-06 07:33:24 51°12.57 2°49.28 8.8 307 11.3 101900 72
2003-05-06 07:33:30 51°12.55 2°49.25 10.2 313 11.3 101900 72
2003-05-06 07:33:34 51°12.55 2°49.23 9.6 307 11.3 101900 72
2003-05-06 07:33:40 51°12.54 2°49.19 9.9 305 11.3 101900 72
2003-05-06 07:33:44 51°12.53 2°49.17 9.9 301 11.2 101900 72
2003-05-06 07:33:50 51°12.52 2°49.13 9.7 300 11.2 101900 72
2003-05-06 07:33:54 51°12.51 2°49.11 9.9 304 11.3 101910 72
2003-05-06 07:34:00 51°12.5 2°49.07 9.3 305 11.2 101900 72
2003-05-06 07:34:04 51°12.49 2°49.05 9.7 303 11.2 101900 72
2003-05-06 07:34:10 51°12.48 2°49.02 10 302 11.2 101900 72
2003-05-06 07:34:14 51°12.47 2°48.99 9.4 303 11.2 101900 72
2003-05-06 07:34:20 51°12.46 2°48.96 9.4 308 11.2 101910 72
2003-05-06 07:34:24 51°12.46 2°48.93 9 312 11.2 101910 72
2003-05-06 07:34:28 51°12.45 2°48.91 9.9 311 11.2 101900 72
2003-05-06 07:34:34 51°12.44 2°48.88 9.2 309 11.2 101900 72
2003-05-06 07:34:40 51°12.43 2°48.84 10.5 304 11.2 101900 72
2003-05-06 07:34:44 51°12.42 2°48.82 9.4 304 11.2 101900 72
2003-05-06 07:34:50 51°12.41 2°48.78 9.2 308 11.2 101900 72
2003-05-06 07:34:54 51°12.4 2°48.76 9.7 305 11.2 101910 72
2003-05-06 07:35:00 51°12.39 2°48.73 9 302 11.2 101910 72
2003-05-06 07:35:04 51°12.38 2°48.7 9.9 307 11.2 101910 72
2003-05-06 07:35:10 51°12.37 2°48.67 9.9 309 11.2 101910 72
2003-05-06 07:35:14 51°12.36 2°48.64 10 305 11.2 101910 72
2003-05-06 07:35:20 51°12.35 2°48.61 8.9 310 11.2 101910 72
2003-05-06 07:35:24 51°12.35 2°48.59 9.5 304 11.2 101910 72
2003-05-06 07:35:30 51°12.33 2°48.55 9.8 305 11.2 101910 72
2003-05-06 07:35:34 51°12.33 2°48.53 9.3 306 11.2 101910 72
2003-05-06 07:35:40 51°12.32 2°48.49 9.1 305 11.2 101910 72
2003-05-06 07:35:44 51°12.31 2°48.47 9.1 307 11.2 101910 72
2003-05-06 07:35:50 51°12.3 2°48.44 9 305 11.2 101910 72
2003-05-06 07:35:54 51°12.29 2°48.41 10.2 307 11.2 101910 72
2003-05-06 07:36:00 51°12.28 2°48.38 9.1 313 11.2 101910 72
2003-05-06 07:36:04 51°12.27 2°48.35 9.6 308 11.2 101910 72
2003-05-06 07:36:10 51°12.26 2°48.32 9.6 311 11.2 101910 72
2003-05-06 07:36:14 51°12.25 2°48.3 9.5 307 11.2 101910 72
2003-05-06 07:36:20 51°12.24 2°48.26 9.7 307 11.2 101910 72
2003-05-06 07:36:24 51°12.24 2°48.24 9.8 306 11.2 101910 72
2003-05-06 07:36:30 51°12.22 2°48.2 8.8 312 11.2 101920 72
2003-05-06 07:36:34 51°12.22 2°48.18 9.1 310 11.2 101920 72
2003-05-06 07:36:40 51°12.21 2°48.14 9.2 306 11.2 101920 72
2003-05-06 07:36:44 51°12.2 2°48.12 9.4 307 11.2 101920 72
2003-05-06 07:36:50 51°12.19 2°48.09 9.1 307 11.2 101910 72
2003-05-06 07:36:54 51°12.18 2°48.06 10.3 309 11.2 101910 72
2003-05-06 07:37:00 51°12.17 2°48.03 9.7 307 11.2 101920 72
2003-05-06 07:37:04 51°12.16 2°48 10 309 11.2 101920 72
2003-05-06 07:37:10 51°12.15 2°47.97 9.2 312 11.2 101920 73
2003-05-06 07:37:14 51°12.14 2°47.95 9.2 309 11.2 101920 73
2003-05-06 07:37:20 51°12.13 2°47.91 8.8 305 11.2 101920 72
2003-05-06 07:37:24 51°12.13 2°47.89 10.1 310 11.2 101920 72
2003-05-06 07:37:30 51°12.12 2°47.85 9.9 307 11.2 101920 72
2003-05-06 07:37:34 51°12.11 2°47.83 9.7 309 11.2 101920 72
2003-05-06 07:37:40 51°12.1 2°47.79 9.7 306 11.2 101920 72
2003-05-06 07:37:44 51°12.09 2°47.77 9.8 305 11.2 101920 72
2003-05-06 07:37:50 51°12.08 2°47.74 9.2 302 11.2 101920 72
2003-05-06 07:37:54 51°12.07 2°47.71 8.6 313 11.2 101920 72
2003-05-06 07:38:00 51°12.06 2°47.68 9.8 307 11.1 101920 72
2003-05-06 07:38:04 51°12.05 2°47.66 9.5 307 11.1 101920 72
2003-05-06 07:38:10 51°12.04 2°47.62 9.6 310 11.2 101920 72
2003-05-06 07:38:14 51°12.03 2°47.6 9.3 311 11.2 101920 72
2003-05-06 07:38:20 51°12.02 2°47.56 9.3 312 11.2 101930 72
2003-05-06 07:38:24 51°12.02 2°47.54 9.2 317 11.2 101930 72
2003-05-06 07:38:30 51°12.01 2°47.5 9.7 309 11.2 101930 72
2003-05-06 07:38:34 51°12 2°47.48 9.8 311 11.2 101930 72
2003-05-06 07:38:40 51°11.99 2°47.45 9.6 304 11.2 101930 72
2003-05-06 07:38:44 51°11.98 2°47.42 9.1 307 11.2 101930 72
2003-05-06 07:38:50 51°11.97 2°47.39 9.5 311 11.2 101930 72
2003-05-06 07:38:54 51°11.96 2°47.36 9.2 311 11.2 101930 72
2003-05-06 07:39:00 51°11.95 2°47.33 9.2 310 11.2 101930 72
2003-05-06 07:39:04 51°11.94 2°47.31 9.2 310 11.2 101930 72
2003-05-06 07:39:10 51°11.93 2°47.27 9.8 312 11.2 101930 72
2003-05-06 07:39:14 51°11.93 2°47.25 10.1 310 11.2 101930 72
2003-05-06 07:39:20 51°11.92 2°47.21 9.8 308 11.2 101930 72
2003-05-06 07:39:24 51°11.91 2°47.19 9.9 306 11.2 101930 72
2003-05-06 07:39:30 51°11.9 2°47.15 10.2 306 11.2 101930 72
2003-05-06 07:39:34 51°11.89 2°47.13 9.8 304 11.2 101930 72
2003-05-06 07:39:40 51°11.88 2°47.1 10 308 11.2 101930 72
2003-05-06 07:39:44 51°11.87 2°47.07 9.4 306 11.2 101930 72
2003-05-06 07:39:50 51°11.86 2°47.04 9.3 313 11.1 101930 71
2003-05-06 07:39:54 51°11.86 2°47.01 9.5 305 11.1 101930 71
2003-05-06 07:40:00 51°11.85 2°46.98 9.4 305 11.2 101930 71
2003-05-06 07:40:04 51°11.84 2°46.96 9.2 309 11.2 101930 71
2003-05-06 07:40:10 51°11.83 2°46.92 9.8 308 11.2 101930 71
2003-05-06 07:40:14 51°11.82 2°46.9 9.2 311 11.2 101930 72
2003-05-06 07:40:20 51°11.81 2°46.86 8.6 307 11.2 101930 71
2003-05-06 07:40:24 51°11.8 2°46.84 9.6 305 11.2 101930 71
2003-05-06 07:40:30 51°11.79 2°46.8 9.9 305 11.2 101930 71
2003-05-06 07:40:34 51°11.78 2°46.78 9.2 308 11.2 101930 71
2003-05-06 07:40:40 51°11.77 2°46.75 9.2 305 11.2 101930 72
2003-05-06 07:40:44 51°11.77 2°46.72 9.7 309 11.2 101930 72
2003-05-06 07:40:50 51°11.75 2°46.69 10 308 11.2 101930 72
2003-05-06 07:40:54 51°11.75 2°46.66 10 304 11.2 101940 72
2003-05-06 07:41:00 51°11.74 2°46.63 9.7 302 11.2 101940 72
2003-05-06 07:41:04 51°11.73 2°46.61 9.4 311 11.2 101940 72
2003-05-06 07:41:10 51°11.72 2°46.57 9.2 312 11.2 101930 72
2003-05-06 07:41:14 51°11.71 2°46.55 9.9 308 11.2 101930 72
2003-05-06 07:41:20 51°11.7 2°46.51 9.9 307 11.2 101930 72
2003-05-06 07:41:24 51°11.69 2°46.49 10 314 11.2 101930 72
2003-05-06 07:41:30 51°11.68 2°46.45 10.6 306 11.2 101930 72
2003-05-06 07:41:34 51°11.68 2°46.43 9.8 304 11.2 101930 72
2003-05-06 07:41:40 51°11.66 2°46.39 9.2 302 11.2 101930 72
2003-05-06 07:41:44 51°11.66 2°46.37 9.9 312 11.2 101930 72
2003-05-06 07:41:50 51°11.65 2°46.34 9.6 311 11.2 101930 72
2003-05-06 07:41:54 51°11.64 2°46.31 9.3 311 11.2 101930 72
2003-05-06 07:42:00 51°11.63 2°46.28 9.9 309 11.2 101930 72
2003-05-06 07:42:04 51°11.62 2°46.25 9.9 311 11.2 101930 72
2003-05-06 07:42:10 51°11.61 2°46.22 10 309 11.2 101930 72
2003-05-06 07:42:14 51°11.6 2°46.19 9.6 310 11.2 101930 72
2003-05-06 07:42:20 51°11.59 2°46.16 9.8 308 11.2 101930 72
2003-05-06 07:42:24 51°11.59 2°46.14 10 315 11.2 101930 72
2003-05-06 07:42:30 51°11.57 2°46.1 10.2 309 11.2 101930 72
2003-05-06 07:42:34 51°11.57 2°46.08 10.3 306 11.2 101930 72
2003-05-06 07:42:40 51°11.56 2°46.04 9.9 306 11.2 101930 72
2003-05-06 07:42:44 51°11.55 2°46.02 10.1 307 11.2 101930 72
2003-05-06 07:42:50 51°11.54 2°45.98 10.4 312 11.2 101930 72
2003-05-06 07:42:54 51°11.53 2°45.96 10.1 305 11.2 101930 72
2003-05-06 07:43:00 51°11.52 2°45.92 9.9 310 11.2 101930 71
2003-05-06 07:43:04 51°11.51 2°45.9 10.2 308 11.2 101930 71
2003-05-06 07:43:10 51°11.5 2°45.87 9.6 312 11.2 101930 72
2003-05-06 07:43:14 51°11.5 2°45.84 10.3 308 11.2 101930 72
2003-05-06 07:43:20 51°11.49 2°45.81 9.8 304 11.1 101930 71
2003-05-06 07:43:24 51°11.48 2°45.78 9.9 309 11.1 101930 71
2003-05-06 07:43:30 51°11.47 2°45.75 9.8 308 11.2 101930 72
2003-05-06 07:43:34 51°11.46 2°45.73 9.8 307 11.2 101930 72
2003-05-06 07:43:40 51°11.45 2°45.69 9.7 312 11.2 101930 72
2003-05-06 07:43:44 51°11.44 2°45.67 11 312 11.2 101930 72
2003-05-06 07:43:50 51°11.43 2°45.63 10.5 304 11.2 101930 72
2003-05-06 07:43:54 51°11.43 2°45.61 10 307 11.2 101930 72
2003-05-06 07:44:00 51°11.42 2°45.57 10.4 308 11.2 101930 72
2003-05-06 07:44:04 51°11.41 2°45.55 10 305 11.2 101930 72
2003-05-06 07:44:10 51°11.4 2°45.51 10 312 11.2 101930 72
2003-05-06 07:44:14 51°11.39 2°45.49 9.6 315 11.2 101940 72
2003-05-06 07:44:20 51°11.38 2°45.46 10.2 308 11.2 101930 72
2003-05-06 07:44:24 51°11.37 2°45.43 10.7 311 11.2 101930 72
2003-05-06 07:44:30 51°11.36 2°45.4 10 304 11.2 101930 72
2003-05-06 07:44:34 51°11.35 2°45.37 10.3 305 11.2 101930 72
2003-05-06 07:44:40 51°11.34 2°45.34 9.9 309 11.2 101930 73
2003-05-06 07:44:44 51°11.34 2°45.31 10.2 314 11.2 101930 73
2003-05-06 07:44:50 51°11.33 2°45.28 10 313 11.2 101930 73
2003-05-06 07:44:54 51°11.32 2°45.26 9.9 312 11.2 101940 72
2003-05-06 07:45:00 51°11.31 2°45.22 10.1 310 11.2 101940 72
2003-05-06 07:45:04 51°11.3 2°45.2 10.9 306 11.2 101940 72
2003-05-06 07:45:10 51°11.29 2°45.16 9.9 312 11.2 101940 73
2003-05-06 07:45:14 51°11.28 2°45.14 10.1 313 11.2 101940 73
2003-05-06 07:45:20 51°11.27 2°45.1 10 310 11.2 101940 73
2003-05-06 07:45:24 51°11.27 2°45.08 10.6 306 11.2 101940 73
2003-05-06 07:45:28 51°11.26 2°45.06 10.4 310 11.2 101930 72
2003-05-06 07:45:34 51°11.25 2°45.02 10.6 308 11.2 101930 72
2003-05-06 07:45:40 51°11.24 2°44.99 10.2 308 11.2 101940 72
2003-05-06 07:45:44 51°11.23 2°44.96 10.1 313 11.2 101940 72
2003-05-06 07:45:50 51°11.22 2°44.93 9.9 314 11.2 101940 72
2003-05-06 07:45:54 51°11.21 2°44.9 10.5 311 11.2 101940 72
2003-05-06 07:46:00 51°11.2 2°44.87 10.1 310 11.2 101940 72
2003-05-06 07:46:04 51°11.19 2°44.84 10.2 315 11.2 101940 72
2003-05-06 07:46:10 51°11.18 2°44.81 10.6 313 11.2 101940 72
2003-05-06 07:46:14 51°11.18 2°44.79 10.3 310 11.2 101940 73
2003-05-06 07:46:20 51°11.16 2°44.75 10.2 304 11.2 101940 73
2003-05-06 07:46:24 51°11.16 2°44.73 10.7 316 11.2 101940 73
2003-05-06 07:46:30 51°11.15 2°44.69 10.5 309 11.2 101940 73
2003-05-06 07:46:34 51°11.14 2°44.67 10.1 311 11.2 101940 73
2003-05-06 07:46:40 51°11.13 2°44.63 9.7 308 11.1 101940 72
2003-05-06 07:46:44 51°11.12 2°44.61 10.3 308 11.1 101940 72
2003-05-06 07:46:50 51°11.11 2°44.58 9.7 304 11.2 101940 73
2003-05-06 07:46:54 51°11.1 2°44.55 11 309 11.2 101940 73
2003-05-06 07:47:00 51°11.09 2°44.52 10.7 311 11.2 101940 73
2003-05-06 07:47:04 51°11.08 2°44.49 10 307 11.2 101940 73
2003-05-06 07:47:10 51°11.07 2°44.46 9.8 316 11.2 101940 73
2003-05-06 07:47:14 51°11.07 2°44.43 10.3 310 11.2 101940 73
2003-05-06 07:47:20 51°11.06 2°44.4 10.7 308 11.2 101940 73
2003-05-06 07:47:24 51°11.05 2°44.38 10.4 304 11.2 101940 73
2003-05-06 07:47:30 51°11.04 2°44.34 9.7 310 11.2 101940 73
2003-05-06 07:47:34 51°11.03 2°44.32 10.6 314 11.2 101940 73
2003-05-06 07:47:40 51°11.02 2°44.28 10.8 309 11.1 101940 73
2003-05-06 07:47:44 51°11.02 2°44.26 10.9 307 11.1 101940 73
2003-05-06 07:47:50 51°11.01 2°44.22 10.6 306 11.2 101940 73
2003-05-06 07:47:54 51°11 2°44.2 10.3 308 11.2 101940 73
2003-05-06 07:48:00 51°10.99 2°44.16 10.2 310 11.1 101940 72
2003-05-06 07:48:04 51°10.98 2°44.14 10.4 309 11.1 101940 72
2003-05-06 07:48:08 51°10.97 2°44.12 10.6 310 11.1 101940 72
2003-05-06 07:48:14 51°10.96 2°44.08 10.4 308 11.1 101940 72
2003-05-06 07:48:20 51°10.95 2°44.05 10.4 310 11.1 101940 72
2003-05-06 07:48:24 51°10.94 2°44.02 10.8 304 11.1 101940 72
2003-05-06 07:48:30 51°10.93 2°43.99 10.2 308 11.1 101940 72
2003-05-06 07:48:34 51°10.93 2°43.96 10.4 311 11.1 101940 72
2003-05-06 07:48:40 51°10.92 2°43.93 9.9 310 11.2 101940 73
2003-05-06 07:48:44 51°10.91 2°43.91 9.7 312 11.2 101940 73
2003-05-06 07:48:50 51°10.9 2°43.87 10.3 309 11.1 101950 73
2003-05-06 07:48:54 51°10.89 2°43.85 10.3 307 11.1 101950 73
2003-05-06 07:49:00 51°10.88 2°43.81 10.8 307 11.1 101940 72
2003-05-06 07:49:04 51°10.87 2°43.79 10.8 305 11.1 101940 72
2003-05-06 07:49:10 51°10.86 2°43.75 10.4 306 11.1 101950 73
2003-05-06 07:49:14 51°10.86 2°43.73 10.4 305 11.1 101950 73
2003-05-06 07:49:20 51°10.85 2°43.7 10.1 306 11.1 101950 72
2003-05-06 07:49:24 51°10.84 2°43.67 9.3 311 11.1 101950 72
2003-05-06 07:49:28 51°10.83 2°43.65 11.1 307 11.1 101940 72
2003-05-06 07:49:34 51°10.82 2°43.61 10.8 309 11.1 101940 72
2003-05-06 07:49:40 51°10.81 2°43.58 10.1 306 11.1 101940 72
2003-05-06 07:49:44 51°10.8 2°43.56 10.8 307 11.1 101940 72
2003-05-06 07:49:50 51°10.79 2°43.52 10 309 11.1 101950 72
2003-05-06 07:49:54 51°10.78 2°43.5 10.2 315 11.1 101950 72
2003-05-06 07:50:00 51°10.77 2°43.46 10.9 311 11.1 101940 72
2003-05-06 07:50:04 51°10.77 2°43.44 10.1 309 11.1 101940 72
2003-05-06 07:50:10 51°10.76 2°43.4 10.3 309 11.2 101950 72
2003-05-06 07:50:14 51°10.75 2°43.38 9.9 318 11.2 101950 72
2003-05-06 07:50:20 51°10.74 2°43.34 10 311 11.1 101950 72
2003-05-06 07:50:24 51°10.73 2°43.32 10.3 311 11.1 101950 72
2003-05-06 07:50:30 51°10.72 2°43.29 9.7 316 11.1 101950 72
2003-05-06 07:50:34 51°10.72 2°43.26 9.9 310 11.1 101950 72
2003-05-06 07:50:40 51°10.71 2°43.23 10.7 307 11.1 101950 73
2003-05-06 07:50:44 51°10.7 2°43.21 10.3 311 11.1 101950 73
2003-05-06 07:50:50 51°10.69 2°43.17 10.1 310 11.1 101950 73
2003-05-06 07:50:54 51°10.68 2°43.15 9.5 315 11.1 101950 73
2003-05-06 07:51:00 51°10.67 2°43.11 10 316 11.1 101950 73
2003-05-06 07:51:04 51°10.66 2°43.09 10.1 310 11.1 101950 73
2003-05-06 07:51:10 51°10.65 2°43.05 10.6 311 11.1 101950 73
2003-05-06 07:51:14 51°10.65 2°43.03 9.9 310 11.1 101950 73
2003-05-06 07:51:20 51°10.64 2°43 10.2 308 11.1 101960 73
2003-05-06 07:51:24 51°10.63 2°42.97 10.5 311 11.1 101960 73
2003-05-06 07:51:30 51°10.62 2°42.94 10.7 308 11.1 101950 73
2003-05-06 07:51:34 51°10.61 2°42.91 10.6 310 11.1 101950 73
2003-05-06 07:51:40 51°10.6 2°42.88 10.3 315 11.1 101960 73
2003-05-06 07:51:44 51°10.6 2°42.86 10.5 308 11.1 101960 73
2003-05-06 07:51:50 51°10.59 2°42.82 11 308 11.1 101960 73
2003-05-06 07:51:54 51°10.58 2°42.8 10.2 307 11.1 101960 73
2003-05-06 07:52:00 51°10.57 2°42.76 10.2 313 11.1 101960 73
2003-05-06 07:52:04 51°10.57 2°42.74 10.5 311 11.1 101960 73
2003-05-06 07:52:10 51°10.56 2°42.7 10.5 319 11.1 101960 73
2003-05-06 07:52:14 51°10.55 2°42.68 11.1 313 11.1 101960 73
2003-05-06 07:52:20 51°10.54 2°42.64 11 308 11.1 101960 73
2003-05-06 07:52:24 51°10.53 2°42.62 10.2 309 11.1 101960 73
2003-05-06 07:52:28 51°10.53 2°42.6 10 305 11.1 101960 73
2003-05-06 07:52:34 51°10.52 2°42.56 9.9 308 11.1 101960 73
2003-05-06 07:52:40 51°10.51 2°42.53 10.2 309 11.1 101960 73
2003-05-06 07:52:44 51°10.5 2°42.5 9.7 313 11.1 101960 73
2003-05-06 07:52:50 51°10.49 2°42.47 10.8 311 11 101960 72
2003-05-06 07:52:54 51°10.48 2°42.44 9.8 307 11 101960 72
2003-05-06 07:53:00 51°10.48 2°42.41 10.7 316 11.1 101960 72
2003-05-06 07:53:04 51°10.47 2°42.38 10.5 314 11.1 101960 72
2003-05-06 07:53:08 51°10.46 2°42.36 11.3 310 11.1 101960 72
2003-05-06 07:53:14 51°10.45 2°42.32 9.9 309 11.1 101960 72
2003-05-06 07:53:20 51°10.45 2°42.29 9.7 310 11.1 101970 73
2003-05-06 07:53:24 51°10.44 2°42.26 10.3 312 11.1 101970 73
2003-05-06 07:53:30 51°10.43 2°42.23 9.3 316 11.1 101970 72
2003-05-06 07:53:34 51°10.42 2°42.21 10.2 311 11.1 101970 72
2003-05-06 07:53:40 51°10.41 2°42.17 10 307 11.1 101960 72
2003-05-06 07:53:44 51°10.41 2°42.15 10.4 310 11.1 101960 72
2003-05-06 07:53:50 51°10.4 2°42.11 10.2 311 11.1 101970 73
2003-05-06 07:53:54 51°10.39 2°42.09 10.1 316 11.1 101970 73
2003-05-06 07:54:00 51°10.38 2°42.05 10.4 311 11.1 101960 72
2003-05-06 07:54:04 51°10.37 2°42.03 10.4 310 11.1 101960 72
2003-05-06 07:54:10 51°10.36 2°41.99 9.6 316 11.1 101960 72
2003-05-06 07:54:14 51°10.36 2°41.97 10.2 312 11.1 101960 72
2003-05-06 07:54:20 51°10.35 2°41.94 10.4 313 11.1 101970 72
2003-05-06 07:54:24 51°10.34 2°41.91 10.7 312 11.1 101970 72
2003-05-06 07:54:30 51°10.33 2°41.88 10.3 312 11.1 101970 72
2003-05-06 07:54:34 51°10.33 2°41.85 10.3 310 11.1 101970 72
2003-05-06 07:54:40 51°10.32 2°41.82 10.3 313 11.1 101970 72
2003-05-06 07:54:44 51°10.31 2°41.79 10.5 308 11.1 101970 72
2003-05-06 07:54:50 51°10.3 2°41.76 10.2 316 11.1 101970 72
2003-05-06 07:54:54 51°10.3 2°41.73 10.2 317 11.1 101970 72
2003-05-06 07:55:00 51°10.29 2°41.7 10.6 310 11 101970 72
2003-05-06 07:55:04 51°10.28 2°41.68 11.3 309 11 101970 72
2003-05-06 07:55:10 51°10.27 2°41.64 10.5 310 11.1 101980 72
2003-05-06 07:55:14 51°10.26 2°41.62 9.5 313 11.1 101980 72
2003-05-06 07:55:20 51°10.25 2°41.58 10 307 11 101970 72
2003-05-06 07:55:24 51°10.24 2°41.56 10.2 313 11 101970 72
2003-05-06 07:55:30 51°10.24 2°41.52 10.3 316 11 101970 72
2003-05-06 07:55:34 51°10.23 2°41.5 11.5 312 11 101970 72
2003-05-06 07:55:40 51°10.22 2°41.46 10.5 315 11.1 101970 72
2003-05-06 07:55:44 51°10.21 2°41.44 9.4 318 11.1 101970 72
2003-05-06 07:55:50 51°10.2 2°41.41 10.4 313 11.1 101970 72
2003-05-06 07:55:54 51°10.2 2°41.38 9.4 317 11.1 101970 73
2003-05-06 07:56:00 51°10.19 2°41.35 9.3 311 11 101970 72
2003-05-06 07:56:04 51°10.18 2°41.32 9.3 311 11 101970 72
2003-05-06 07:56:10 51°10.17 2°41.29 9.7 315 11.1 101980 72
2003-05-06 07:56:14 51°10.16 2°41.26 9.8 311 11.1 101980 72
2003-05-06 07:56:20 51°10.15 2°41.23 10.1 310 11.1 101980 73
2003-05-06 07:56:24 51°10.15 2°41.21 9.7 317 11.1 101980 73
2003-05-06 07:56:30 51°10.14 2°41.17 10 316 11.1 101980 73
2003-05-06 07:56:34 51°10.13 2°41.15 10.5 314 11.1 101980 73
2003-05-06 07:56:40 51°10.12 2°41.11 10.4 318 11.1 101970 73
2003-05-06 07:56:44 51°10.12 2°41.09 11 313 11.1 101970 73
2003-05-06 07:56:50 51°10.11 2°41.05 10.3 315 11.1 101980 73
2003-05-06 07:56:54 51°10.1 2°41.03 10.3 314 11.1 101980 73
2003-05-06 07:57:00 51°10.09 2°40.99 10.5 310 11.1 101970 73
2003-05-06 07:57:04 51°10.09 2°40.97 10.3 316 11.1 101970 73
2003-05-06 07:57:10 51°10.08 2°40.93 10.7 312 11 101970 73
2003-05-06 07:57:14 51°10.07 2°40.91 10 309 11 101970 73
2003-05-06 07:57:20 51°10.06 2°40.87 9.3 316 11 101970 73
2003-05-06 07:57:24 51°10.05 2°40.85 9.7 314 11 101970 73
2003-05-06 07:57:30 51°10.04 2°40.82 9.4 315 11 101970 73
2003-05-06 07:57:34 51°10.03 2°40.79 9.8 312 11 101970 73
2003-05-06 07:57:40 51°10.02 2°40.76 10.7 316 11 101970 73
2003-05-06 07:57:44 51°10.02 2°40.73 10 311 11 101970 73
2003-05-06 07:57:50 51°10.01 2°40.7 10.5 312 11 101980 73
2003-05-06 07:57:54 51°10 2°40.67 9.7 311 11 101980 73
2003-05-06 07:58:00 51°9.99 2°40.64 10.3 319 11.1 101980 74
2003-05-06 07:58:04 51°9.99 2°40.61 10.7 318 11.1 101980 74
2003-05-06 07:58:10 51°9.98 2°40.58 11.1 311 11.1 101980 74
2003-05-06 07:58:14 51°9.97 2°40.55 10.6 309 11 101970 73
2003-05-06 07:58:20 51°9.96 2°40.52 11 308 11 101970 73
2003-05-06 07:58:24 51°9.96 2°40.49 9.3 313 11 101970 73
2003-05-06 07:58:30 51°9.94 2°40.46 9.8 317 11 101970 74
2003-05-06 07:58:34 51°9.94 2°40.44 10.3 313 11 101970 74
2003-05-06 07:58:40 51°9.93 2°40.4 10.1 312 11 101970 73
2003-05-06 07:58:44 51°9.92 2°40.38 10.3 315 11 101970 73
2003-05-06 07:58:50 51°9.91 2°40.34 10.2 314 11 101970 74
2003-05-06 07:58:54 51°9.91 2°40.32 10 320 11 101970 74
2003-05-06 07:59:00 51°9.9 2°40.28 10.2 313 11 101970 74
2003-05-06 07:59:04 51°9.89 2°40.26 10.8 310 11 101970 74
2003-05-06 07:59:10 51°9.88 2°40.22 10.6 311 11 101970 74
2003-05-06 07:59:14 51°9.88 2°40.2 9.6 315 11 101970 74
2003-05-06 07:59:20 51°9.87 2°40.16 10.3 314 11 101980 74
2003-05-06 07:59:24 51°9.86 2°40.14 10 310 11 101980 74
2003-05-06 07:59:30 51°9.85 2°40.1 9.6 315 11 101970 74
2003-05-06 07:59:34 51°9.84 2°40.08 9.9 315 11 101970 74
2003-05-06 07:59:40 51°9.83 2°40.04 10.2 315 11 101970 74
2003-05-06 07:59:44 51°9.83 2°40.02 9.9 310 11 101970 74
2003-05-06 07:59:50 51°9.82 2°39.98 10 312 11 101980 74
2003-05-06 07:59:54 51°9.81 2°39.96 9.5 314 11 101980 74
2003-05-06 08:00:00 51°9.8 2°39.92 10 316 11 101980 74
2003-05-06 08:00:04 51°9.79 2°39.9 10.8 315 11 101980 74
2003-05-06 08:00:10 51°9.79 2°39.86 10.4 312 11 101980 74
2003-05-06 08:00:14 51°9.78 2°39.84 10.2 315 11 101980 74
2003-05-06 08:00:20 51°9.77 2°39.8 10.1 313 11 101980 74
2003-05-06 08:00:24 51°9.76 2°39.78 9.7 316 11 101980 74
2003-05-06 08:00:30 51°9.76 2°39.74 9.7 315 11 101980 74
2003-05-06 08:00:34 51°9.75 2°39.72 10.2 315 11 101980 74
2003-05-06 08:00:40 51°9.74 2°39.68 10.1 316 11 101980 74
2003-05-06 08:00:44 51°9.73 2°39.66 10.6 313 11 101980 74
2003-05-06 08:00:50 51°9.72 2°39.63 9.9 315 11 101980 74
2003-05-06 08:00:54 51°9.72 2°39.6 11.1 317 11 101980 75
2003-05-06 08:01:00 51°9.71 2°39.57 10.7 312 11 101980 75
2003-05-06 08:01:04 51°9.7 2°39.54 10.3 311 11 101980 74
2003-05-06 08:01:10 51°9.69 2°39.51 10.4 312 11 101980 74
2003-05-06 08:01:14 51°9.68 2°39.48 10.5 310 11 101980 74
2003-05-06 08:01:20 51°9.67 2°39.45 9.9 312 11 101980 74
2003-05-06 08:01:24 51°9.67 2°39.42 10.5 322 11 101980 75
2003-05-06 08:01:30 51°9.66 2°39.39 10.4 313 11 101980 74
2003-05-06 08:01:34 51°9.65 2°39.36 10 314 11 101980 74
2003-05-06 08:01:40 51°9.64 2°39.33 9.8 317 11 101980 74
2003-05-06 08:01:44 51°9.64 2°39.3 10.3 314 11 101980 74
2003-05-06 08:01:50 51°9.63 2°39.27 10 312 11 101980 74
2003-05-06 08:01:54 51°9.62 2°39.24 9.8 317 11 101980 74
2003-05-06 08:02:00 51°9.61 2°39.21 9.8 312 11 101980 74
2003-05-06 08:02:04 51°9.6 2°39.19 10.1 311 11 101980 75
2003-05-06 08:02:10 51°9.59 2°39.15 10.3 311 11 101980 75
2003-05-06 08:02:14 51°9.59 2°39.13 10 311 11 101980 75
2003-05-06 08:02:20 51°9.57 2°39.09 9.5 313 11 101980 75
2003-05-06 08:02:24 51°9.57 2°39.07 10.5 312 11 101980 75
2003-05-06 08:02:30 51°9.56 2°39.03 10.2 317 11 101980 74
2003-05-06 08:02:34 51°9.55 2°39.01 10.3 318 11 101980 74
2003-05-06 08:02:40 51°9.54 2°38.97 10.9 311 11 101980 74
2003-05-06 08:02:44 51°9.54 2°38.95 10.3 310 11 101980 75
2003-05-06 08:02:50 51°9.53 2°38.91 10.2 317 11 101980 75
2003-05-06 08:02:54 51°9.52 2°38.89 11 314 11 101980 75
2003-05-06 08:03:00 51°9.51 2°38.85 11.3 311 11 101980 75
2003-05-06 08:03:04 51°9.51 2°38.83 10.6 316 11 101990 75
2003-05-06 08:03:10 51°9.5 2°38.79 11 307 11 101980 75
2003-05-06 08:03:14 51°9.49 2°38.77 10.3 314 11 101980 75
2003-05-06 08:03:20 51°9.48 2°38.73 10.7 311 11 101980 75
2003-05-06 08:03:24 51°9.48 2°38.71 10 308 11 101980 75
2003-05-06 08:03:30 51°9.47 2°38.67 10.3 308 11 101980 75
2003-05-06 08:03:34 51°9.46 2°38.65 10.6 307 11 101980 75
2003-05-06 08:03:40 51°9.45 2°38.61 10.4 311 11 101980 75
2003-05-06 08:03:44 51°9.44 2°38.59 10.2 313 11 101980 75
2003-05-06 08:03:50 51°9.43 2°38.56 10.3 315 11 101980 75
2003-05-06 08:03:54 51°9.43 2°38.53 11 313 11 101980 75
2003-05-06 08:04:00 51°9.42 2°38.5 10.6 314 11 101980 75
2003-05-06 08:04:04 51°9.41 2°38.47 10.5 321 10.9 101980 75
2003-05-06 08:04:10 51°9.4 2°38.44 10.5 318 10.9 101980 75
2003-05-06 08:04:14 51°9.4 2°38.41 11 314 11 101980 75
2003-05-06 08:04:20 51°9.39 2°38.38 11.2 314 11 101980 75
2003-05-06 08:04:24 51°9.38 2°38.35 11 312 11 101980 75
2003-05-06 08:04:30 51°9.37 2°38.32 10.8 314 11 101980 75
2003-05-06 08:04:34 51°9.36 2°38.29 10.6 313 11 101980 75
2003-05-06 08:04:40 51°9.35 2°38.26 10.3 307 11 101980 75
2003-05-06 08:04:44 51°9.35 2°38.23 10.1 317 11 101980 75
2003-05-06 08:04:50 51°9.34 2°38.2 11 314 11 101980 75
2003-05-06 08:04:54 51°9.33 2°38.17 10.6 314 11 101980 75
2003-05-06 08:05:00 51°9.32 2°38.14 9.8 318 11 101980 75
2003-05-06 08:05:04 51°9.31 2°38.12 10.3 312 10.9 101980 74
2003-05-06 08:05:10 51°9.3 2°38.08 10.6 311 10.9 101980 74
2003-05-06 08:05:14 51°9.3 2°38.06 10.6 312 11 101980 75
2003-05-06 08:05:20 51°9.29 2°38.02 10.7 309 11 101980 75
2003-05-06 08:05:24 51°9.28 2°38 10.1 316 11 101980 75
2003-05-06 08:05:30 51°9.28 2°37.96 10.6 315 11 101980 75
2003-05-06 08:05:34 51°9.27 2°37.94 10.5 315 11 101980 75
2003-05-06 08:05:40 51°9.26 2°37.9 11.7 309 11 101980 75
2003-05-06 08:05:44 51°9.25 2°37.88 10.7 308 10.9 101970 74
2003-05-06 08:05:50 51°9.24 2°37.84 10.4 315 10.9 101970 74
2003-05-06 08:05:54 51°9.24 2°37.82 10.8 313 11 101980 75
2003-05-06 08:06:00 51°9.23 2°37.78 9.5 313 11 101980 75
2003-05-06 08:06:04 51°9.22 2°37.76 10.4 313 11 101980 75
2003-05-06 08:06:10 51°9.21 2°37.72 11.1 312 11 101980 75
2003-05-06 08:06:14 51°9.2 2°37.7 10.5 313 10.9 101970 75
2003-05-06 08:06:20 51°9.19 2°37.67 10.8 312 10.9 101970 75
2003-05-06 08:06:24 51°9.19 2°37.64 10.8 311 11 101980 75
2003-05-06 08:06:30 51°9.18 2°37.61 11.3 313 11 101980 75
2003-05-06 08:06:34 51°9.17 2°37.58 11.5 311 10.9 101980 75
2003-05-06 08:06:40 51°9.16 2°37.55 11.1 309 10.9 101980 75
2003-05-06 08:06:44 51°9.16 2°37.52 10.5 309 10.9 101980 75
2003-05-06 08:06:50 51°9.15 2°37.49 10.7 313 10.9 101980 75
2003-05-06 08:06:54 51°9.14 2°37.46 10 309 10.9 101980 75
2003-05-06 08:07:00 51°9.13 2°37.43 10.5 308 10.9 101980 75
2003-05-06 08:07:04 51°9.13 2°37.41 9.9 305 10.9 101970 75
2003-05-06 08:07:10 51°9.12 2°37.38 9.6 303 10.9 101970 75
2003-05-06 08:07:14 51°9.11 2°37.35 8.7 300 10.9 101980 75
2003-05-06 08:07:20 51°9.11 2°37.33 8.2 301 10.9 101980 75
2003-05-06 08:07:24 51°9.1 2°37.31 8.4 295 11 101980 75
2003-05-06 08:07:30 51°9.09 2°37.28 8.3 294 11 101980 75
2003-05-06 08:07:34 51°9.09 2°37.27 8.1 292 10.9 101990 75
2003-05-06 08:07:40 51°9.08 2°37.25 7.3 281 10.9 101990 75
2003-05-06 08:07:44 51°9.07 2°37.23 7.6 278 10.9 101980 75
2003-05-06 08:07:50 51°9.07 2°37.22 7.4 269 10.9 101980 75
2003-05-06 08:07:54 51°9.06 2°37.21 7.2 270 10.9 101980 75
2003-05-06 08:08:00 51°9.06 2°37.19 6.5 280 10.9 101980 75
2003-05-06 08:08:04 51°9.05 2°37.19 5.9 283 10.9 101980 75
2003-05-06 08:08:10 51°9.05 2°37.17 6.2 284 10.9 101980 75
2003-05-06 08:08:14 51°9.05 2°37.17 5.9 285 10.9 101990 74
2003-05-06 08:08:20 51°9.05 2°37.16 5 288 10.9 101990 74
2003-05-06 08:08:24 51°9.05 2°37.16 5.5 289 10.9 101990 75
2003-05-06 08:08:30 51°9.05 2°37.15 5.8 279 10.9 101990 75
2003-05-06 08:08:34 51°9.05 2°37.15 5.7 281 10.9 101990 75
2003-05-06 08:08:40 51°9.05 2°37.15 5.1 286 10.9 101990 75
2003-05-06 08:08:44 51°9.04 2°37.15 5.2 286 10.9 101990 75
2003-05-06 08:08:50 51°9.04 2°37.15 5.1 283 11 101990 76
2003-05-06 08:08:54 51°9.04 2°37.14 6.8 295 11 101990 76
2003-05-06 08:09:00 51°9.04 2°37.14 7.5 301 11 101990 76
2003-05-06 08:09:04 51°9.04 2°37.13 7.4 306 10.9 101990 75
2003-05-06 08:09:10 51°9.04 2°37.12 7.5 323 10.9 101990 75
2003-05-06 08:09:14 51°9.04 2°37.11 8.5 330 10.9 101990 75
2003-05-06 08:09:20 51°9.05 2°37.1 8.8 338 10.9 101990 75
2003-05-06 08:09:24 51°9.05 2°37.1 8.5 348 10.9 101990 75
2003-05-06 08:09:30 51°9.05 2°37.09 7.9 350 10.9 101990 75
2003-05-06 08:09:34 51°9.06 2°37.08 8.3 353 10.9 101990 75
2003-05-06 08:09:40 51°9.06 2°37.07 9 8 10.9 101990 75
2003-05-06 08:09:44 51°9.07 2°37.07 9.1 10 10.9 101990 75
2003-05-06 08:09:50 51°9.08 2°37.06 9 15 10.9 101990 75
2003-05-06 08:09:54 51°9.08 2°37.06 8.1 24 10.9 101990 75
2003-05-06 08:10:00 51°9.09 2°37.06 8.9 33 10.9 101990 75
2003-05-06 08:10:04 51°9.1 2°37.06 9.3 41 10.9 101990 75
2003-05-06 08:10:10 51°9.1 2°37.07 8.5 46 10.9 101970 75
2003-05-06 08:10:14 51°9.11 2°37.07 8.7 48 10.9 101970 75
2003-05-06 08:10:20 51°9.11 2°37.08 9 53 10.9 101970 75
2003-05-06 08:10:24 51°9.12 2°37.09 7.2 64 10.9 101970 75
2003-05-06 08:10:30 51°9.12 2°37.1 7.1 68 10.9 101970 75
2003-05-06 08:10:34 51°9.12 2°37.1 6.4 72 10.9 101990 75
2003-05-06 08:10:40 51°9.12 2°37.12 7.5 79 10.9 101990 75
2003-05-06 08:10:44 51°9.13 2°37.13 7 91 10.9 101990 74
2003-05-06 08:10:50 51°9.13 2°37.14 7.9 93 10.9 101990 74
2003-05-06 08:10:54 51°9.13 2°37.15 6.2 96 10.9 101990 74
2003-05-06 08:11:00 51°9.12 2°37.16 5.1 103 10.9 101990 74
2003-05-06 08:11:04 51°9.12 2°37.17 3.8 108 11 101990 75
2003-05-06 08:11:10 51°9.12 2°37.18 5.2 99 11 101990 75
2003-05-06 08:11:14 51°9.12 2°37.18 4.4 99 10.9 102000 74
2003-05-06 08:11:20 51°9.12 2°37.19 3.2 106 11 102000 75
2003-05-06 08:11:24 51°9.12 2°37.2 3.8 110 11 102000 75
2003-05-06 08:11:30 51°9.11 2°37.2 4.3 109 11 102000 75
2003-05-06 08:11:34 51°9.11 2°37.21 4.4 115 11 102000 75
2003-05-06 08:11:40 51°9.11 2°37.21 4.9 119 11 102000 75
2003-05-06 08:11:44 51°9.11 2°37.21 5.1 113 11 102000 75
2003-05-06 08:11:50 51°9.11 2°37.21 3.6 108 11 102000 75
2003-05-06 08:11:54 51°9.11 2°37.21 4 109 11 102000 75
2003-05-06 08:12:00 51°9.11 2°37.21 2.6 106 11 102000 75
2003-05-06 08:12:04 51°9.11 2°37.22 4.5 102 11 102000 75
2003-05-06 08:12:10 51°9.11 2°37.22 4.2 103 11 102000 75
2003-05-06 08:12:14 51°9.11 2°37.22 5.8 97 11 102000 75
2003-05-06 08:12:20 51°9.11 2°37.22 4.4 103 11 102000 75
2003-05-06 08:12:24 51°9.11 2°37.22 5.4 101 11 102000 75
2003-05-06 08:12:30 51°9.1 2°37.22 5.2 102 11 102000 75
2003-05-06 08:12:34 51°9.1 2°37.22 5.3 94 11 102000 75
2003-05-06 08:12:40 51°9.1 2°37.22 6.4 97 11 102000 75
2003-05-06 08:12:44 51°9.1 2°37.22 5.9 98 11 102000 75
2003-05-06 08:12:50 51°9.1 2°37.22 4.6 101 11 102000 76
2003-05-06 08:12:54 51°9.1 2°37.22 6 98 11 102000 76
2003-05-06 08:13:00 51°9.1 2°37.22 4.9 101 11 102000 76
2003-05-06 08:13:04 51°9.1 2°37.22 6.3 89 11 102000 76
2003-05-06 08:13:10 51°9.1 2°37.22 5.1 100 11 102000 76
2003-05-06 08:13:14 51°9.1 2°37.22 6.2 93 11 102000 76
2003-05-06 08:13:20 51°9.1 2°37.22 6.4 97 11 102000 76
2003-05-06 08:13:24 51°9.1 2°37.22 7 95 11.1 102000 76
2003-05-06 08:13:30 51°9.1 2°37.22 6.6 89 11.1 102000 76
2003-05-06 08:13:34 51°9.1 2°37.22 6.8 90 11.1 102000 76
2003-05-06 08:13:40 51°9.1 2°37.22 6.4 89 11.1 102000 77
2003-05-06 08:13:44 51°9.1 2°37.22 6.6 91 11.1 102000 77
2003-05-06 08:13:50 51°9.1 2°37.22 6.7 92 11.1 102000 77
2003-05-06 08:13:54 51°9.1 2°37.22 6.9 91 11.1 102000 77
2003-05-06 08:14:00 51°9.1 2°37.22 6.4 89 11.1 102000 77
2003-05-06 08:14:04 51°9.1 2°37.22 7.2 90 11.1 102000 76
2003-05-06 08:14:10 51°9.1 2°37.22 5.6 82 11 102010 76
2003-05-06 08:14:14 51°9.1 2°37.22 6.3 91 11 102010 76
2003-05-06 08:14:20 51°9.1 2°37.23 6.5 89 11 102010 76
2003-05-06 08:14:24 51°9.1 2°37.23 7.3 92 11 102000 76
2003-05-06 08:14:30 51°9.1 2°37.23 7.2 93 11 102000 76
2003-05-06 08:14:34 51°9.1 2°37.23 7.6 91 11 102010 76
2003-05-06 08:14:40 51°9.1 2°37.23 7.4 91 11 102010 76
2003-05-06 08:14:44 51°9.1 2°37.23 5.8 79 11.1 102000 76
2003-05-06 08:14:50 51°9.1 2°37.23 6.6 85 11.1 102000 77
2003-05-06 08:14:54 51°9.1 2°37.23 6.8 90 11.1 102000 77
2003-05-06 08:15:00 51°9.1 2°37.23 6.5 87 11.1 102000 77
2003-05-06 08:15:04 51°9.1 2°37.23 6.4 85 11.1 102010 76
2003-05-06 08:15:10 51°9.1 2°37.23 7.3 88 11.1 102010 76
2003-05-06 08:15:14 51°9.1 2°37.23 7.2 82 11 102010 76